User: anonymous   Login
Location: El Bakhil
(32.7726°N, 5.5387°W)
Time: 00:17:52
(UTC+00:00)
Language:

PicSat - Orbit

View from above orbital plane
View from above orbital plane
View from above satellite
View from above satellite

Ground track
Ground track

The orbit data is extracted from the following two-line orbital elements,

1 43131U 18004W   21216.46491975  .00003411  00000-0  12852-3 0  9992
2 43131  97.4099 292.0892 0009226  43.0955 317.1005 15.27739507198099
Epoch (UTC): 04 August 2021 11:09:29
Eccentricity: 0.0009226
inclination: 97.4099°
perigee height: 476 km
apogee height: 489 km
right ascension of ascending node: 292.0892°
argument of perigee: 43.0955°
revolutions per day: 15.27739507
mean anomaly at epoch: 317.1005°
orbit number at epoch: 19809

The dashed part of the orbit path shows where the satellite is in the earth's shadow,  

DLR